Weather History for Hamilton, ON

Change the Weather History Date:

Wednesday, July 10, 2013

  Actual Average Record
Temperature  
Mean Temperature 78 °F -  
Max Temperature 88 °F - - ()
Min Temperature 67 °F - - ()
Cooling Degree Days 13    
Growing Degree Days 28 (Base 50)    
Moisture  
Dew Point 68 °F    
Average Humidity 77    
Maximum Humidity 95    
Minimum Humidity 46    
Precipitation  
Precipitation 0.00 in - - ()
Sea Level Pressure  
Sea Level Pressure 29.75 in    
Wind  
Wind Speed 3 mph ()    
Max Wind Speed 9 mph    
Max Gust Speed 18 mph    
T = Trace of Precipitation, MM = Missing Value Source: Averaged Metar Reports

Daily Weather History Graph

Daily Weather History Graph

Search for Another Location

Airport:

Trip Planner

Search our weather history database for the weather conditions in past years. The results will help you decide how hot, cold, wet, or windy it might be!

Date:

Astronomy

Jul. 10, 2013 Rise Set
Actual Time 5:49 AM EDT 9:00 PM EDT
Civil Twilight 5:14 AM EDT 9:35 PM EDT
Nautical Twilight 4:29 AM EDT 10:19 PM EDT
Astronomical Twilight 3:35 AM EDT 11:13 PM EDT
Moon 8:13 AM EDT (7/10) 10:03 PM EDT (7/10)
Length of Visible Light 16h 20m
Length of Day
15h 11m
Waxing Crescent, 5% of the Moon is Illuminated
Jul 10
Waxing Crescent
Jul 15
First Quarter
Jul 22
Full
Jul 29
Last Quarter
Aug 6
New

Hourly Weather History & Observations

Time (EDT) Temp. Heat Index Dew Point Humidity Pressure Visibility Wind Dir Wind Speed Gust Speed Precip Events Conditions
12:00 AM 68.5 °F - 66.9 °F 95% 29.85 in - Calm Calm - N/A   Unknown
1:00 AM 69.3 °F - 67.8 °F 95% 29.82 in - NW 1.2 mph - N/A   Unknown
2:00 AM 71 °F - 69 °F 93% 29.81 in - SW 3.5 mph - -  
2:00 AM 70.9 °F - 69.4 °F 95% 29.81 in - SW 3.5 mph - N/A   Unknown
3:00 AM 71.2 °F - 69.3 °F 93% 29.78 in - West 2.3 mph - N/A   Unknown
4:00 AM 71.6 °F - 69.6 °F 93% 29.78 in - WSW 2.3 mph - N/A   Unknown
5:00 AM 72.7 °F - 70.0 °F 91% 29.76 in - WSW 2.3 mph - N/A   Unknown
6:00 AM 72.9 °F - 69.8 °F 90% 29.75 in - WSW 2.3 mph - N/A   Unknown
7:00 AM 73.8 °F - 70.2 °F 88% 29.75 in - WSW 2.3 mph - N/A   Unknown
8:00 AM 75 °F - 70 °F 81% 29.75 in - SW 4.6 mph - -  
8:00 AM 75.2 °F - 70.3 °F 85% 29.75 in - SW 4.6 mph - N/A   Unknown
9:00 AM 77.5 °F - 70.5 °F 79% 29.75 in - WSW 5.8 mph - N/A   Unknown
10:00 AM 80.2 °F 83.9 °F 71.2 °F 74% 29.75 in - WSW 5.8 mph - N/A   Unknown
11:00 AM 82.2 °F 87.1 °F 71.8 °F 71% 29.75 in - WSW 6.9 mph - N/A   Unknown
12:00 PM 83.5 °F 88.2 °F 71.2 °F 66% 29.73 in - West 8.1 mph - N/A   Unknown
1:00 PM 84.4 °F 89.4 °F 71.1 °F 64% 29.72 in - WSW 6.9 mph - N/A   Unknown
2:00 PM 87 °F - 69 °F 46% 29.71 in - West 9.2 mph - -  
2:00 PM 86.5 °F 90.7 °F 68.9 °F 56% 29.71 in - West 9.2 mph 18.4 mph N/A   Unknown
3:00 PM 87.6 °F 91.9 °F 69.3 °F 54% 29.69 in - WSW 8.1 mph - N/A   Unknown
4:00 PM 87.1 °F 91.6 °F 69.4 °F 56% 29.67 in - West 8.1 mph - N/A   Unknown
5:00 PM 80.1 °F 83.7 °F 71.6 °F 75% 29.67 in - SW 3.5 mph - N/A   Unknown
6:00 PM 75.2 °F - 69.1 °F 81% 29.72 in - West 3.5 mph - N/A   Unknown
7:00 PM 73.2 °F - 68.4 °F 85% 29.70 in - SW 2.3 mph - N/A   Unknown
8:00 PM 74 °F - 68 °F 78% 29.74 in - WSW 2.3 mph - -  
8:00 PM 73.6 °F - 68.4 °F 84% 29.74 in - WSW 2.3 mph - N/A   Unknown
9:00 PM 72.5 °F - 60.4 °F 66% 29.78 in - WNW 5.8 mph - N/A   Unknown
10:00 PM 69.8 °F - 59.0 °F 68% 29.82 in - WNW 4.6 mph - N/A   Unknown
11:00 PM 67.3 °F - 55.4 °F 66% 29.85 in - WNW 4.6 mph - N/A   Unknown